TimeEDT,TemperatureF,Dew PointF,Humidity,Sea Level PressureIn,VisibilityMPH,Wind Direction,Wind SpeedMPH,Gust SpeedMPH,PrecipitationIn,Events,Conditions,WindDirDegrees,DateUTC
12:15 AM,63.1,54.9,74,29.97,10.0,NE,4.6,-,N/A,,Clear,40,2013-07-01 04:15:00
12:34 AM,62.8,52.0,68,29.97,10.0,NE,4.6,-,N/A,,Clear,40,2013-07-01 04:34:00
12:54 AM,62.1,49.6,64,29.97,10.0,North,4.6,-,N/A,,Clear,10,2013-07-01 04:54:00
1:15 AM,61.5,46.9,59,29.97,10.0,NNE,3.5,-,N/A,,Clear,30,2013-07-01 05:15:00
1:34 AM,61.3,44.8,55,29.97,10.0,NE,4.6,-,N/A,,Clear,40,2013-07-01 05:34:00
1:54 AM,60.4,43.7,54,29.97,10.0,NE,5.8,-,N/A,,Clear,40,2013-07-01 05:54:00
2:15 AM,59.5,43.3,55,29.97,10.0,Calm,Calm,-,N/A,,Clear,0,2013-07-01 06:15:00
2:34 AM,58.8,43.2,56,29.97,10.0,NNE,3.5,-,N/A,,Clear,30,2013-07-01 06:34:00
2:55 AM,58.5,43.5,58,29.97,10.0,North,3.5,-,N/A,,Clear,360,2013-07-01 06:55:00
3:15 AM,57.2,43.2,59,29.97,10.0,North,3.5,-,N/A,,Clear,350,2013-07-01 07:15:00
3:34 AM,57.2,41.7,56,29.98,10.0,Calm,Calm,-,N/A,,Clear,0,2013-07-01 07:34:00
3:55 AM,57.6,41.2,54,29.97,10.0,Calm,Calm,-,N/A,,Clear,0,2013-07-01 07:55:00
4:15 AM,57.4,41.5,56,29.98,10.0,North,3.5,-,N/A,,Clear,360,2013-07-01 08:15:00
4:34 AM,57.6,41.9,56,29.98,10.0,North,3.5,-,N/A,,Clear,10,2013-07-01 08:34:00
4:55 AM,58.1,42.3,56,29.98,10.0,NE,4.6,-,N/A,,Clear,40,2013-07-01 08:55:00
5:14 AM,58.3,43.0,57,29.98,10.0,NE,4.6,-,N/A,,Clear,40,2013-07-01 09:14:00
5:34 AM,58.6,43.3,57,29.98,10.0,NNE,4.6,-,N/A,,Clear,30,2013-07-01 09:34:00
5:55 AM,58.8,44.1,58,29.98,10.0,NNE,4.6,-,N/A,,Clear,30,2013-07-01 09:55:00
6:14 AM,59.0,44.8,59,29.98,10.0,NNE,6.9,-,N/A,,Clear,30,2013-07-01 10:14:00
6:34 AM,59.4,45.1,59,29.99,10.0,NE,5.8,-,N/A,,Clear,50,2013-07-01 10:34:00
6:54 AM,59.9,45.5,59,30.00,10.0,ENE,8.1,-,N/A,,Clear,60,2013-07-01 10:54:00
7:14 AM,60.6,45.1,57,30.00,10.0,NE,6.9,-,N/A,,Clear,50,2013-07-01 11:14:00
7:35 AM,60.8,45.1,56,30.00,10.0,NE,9.2,-,N/A,,Clear,50,2013-07-01 11:35:00
7:54 AM,60.8,45.5,57,30.00,10.0,NE,8.1,-,N/A,,Clear,40,2013-07-01 11:54:00
8:14 AM,61.2,45.7,57,30.00,10.0,NE,9.2,-,N/A,,Clear,40,2013-07-01 12:14:00
8:35 AM,61.2,46.2,58,30.01,10.0,NE,6.9,-,N/A,,Clear,40,2013-07-01 12:35:00
8:54 AM,61.7,46.4,57,30.01,10.0,NE,10.4,-,N/A,,Clear,40,2013-07-01 12:54:00
9:15 AM,62.8,47.7,58,30.02,10.0,NE,8.1,-,N/A,,Clear,50,2013-07-01 13:15:00
9:34 AM,63.7,49.1,59,30.02,10.0,NE,6.9,-,N/A,,Scattered Clouds,50,2013-07-01 13:34:00
9:54 AM,63.9,50.0,61,30.02,10.0,NE,5.8,-,N/A,,Mostly Cloudy,50,2013-07-01 13:54:00
10:15 AM,64.8,51.3,62,30.02,10.0,NE,6.9,-,N/A,,Mostly Cloudy,40,2013-07-01 14:15:00
10:34 AM,65.3,51.1,60,30.01,10.0,NNE,4.6,-,N/A,,Scattered Clouds,30,2013-07-01 14:34:00
10:55 AM,65.8,51.6,60,30.02,10.0,NNE,5.8,-,N/A,,Scattered Clouds,30,2013-07-01 14:55:00
11:15 AM,67.5,52.9,59,30.01,10.0,NNE,5.8,-,N/A,,Scattered Clouds,30,2013-07-01 15:15:00
11:34 AM,70.0,52.0,53,30.02,10.0,NE,5.8,17.3,N/A,,Clear,40,2013-07-01 15:34:00
11:55 AM,70.7,52.3,52,30.02,10.0,NNE,8.1,-,N/A,,Clear,30,2013-07-01 15:55:00
12:15 PM,72.0,54.0,53,30.02,7.0,NNE,9.2,-,N/A,,Clear,30,2013-07-01 16:15:00
12:34 PM,72.3,53.6,52,30.02,7.0,NE,10.4,-,N/A,,Clear,40,2013-07-01 16:34:00
12:55 PM,71.6,54.7,55,30.03,10.0,ENE,13.8,20.7,N/A,,Clear,60,2013-07-01 16:55:00
1:15 PM,70.3,54.9,58,30.03,10.0,NE,9.2,17.3,N/A,,Scattered Clouds,50,2013-07-01 17:15:00
1:34 PM,70.7,55.0,58,30.02,10.0,NE,12.7,19.6,N/A,,Scattered Clouds,50,2013-07-01 17:34:00
1:55 PM,71.8,56.8,59,30.02,10.0,NE,12.7,19.6,N/A,,Clear,50,2013-07-01 17:55:00
2:14 PM,72.7,57.2,58,30.02,10.0,NE,11.5,20.7,N/A,,Scattered Clouds,50,2013-07-01 18:14:00
2:34 PM,71.2,56.7,60,30.02,10.0,ENE,17.3,20.7,N/A,,Mostly Cloudy,70,2013-07-01 18:34:00
2:55 PM,70.3,56.3,61,30.03,10.0,NE,13.8,19.6,N/A,,Overcast,50,2013-07-01 18:55:00
3:14 PM,70.2,56.5,62,30.03,10.0,NE,11.5,-,N/A,,Overcast,50,2013-07-01 19:14:00
3:35 PM,70.3,55.2,59,30.03,10.0,ENE,12.7,20.7,N/A,,Overcast,60,2013-07-01 19:35:00
3:55 PM,70.0,51.6,52,30.04,10.0,NE,11.5,20.7,N/A,,Overcast,50,2013-07-01 19:55:00
4:14 PM,70.0,51.3,51,30.04,10.0,NE,13.8,18.4,N/A,,Overcast,50,2013-07-01 20:14:00
4:35 PM,70.0,52.0,53,30.04,10.0,NE,9.2,-,N/A,,Overcast,40,2013-07-01 20:35:00
4:55 PM,70.0,51.8,52,30.04,10.0,NE,9.2,21.9,N/A,,Overcast,50,2013-07-01 20:55:00
5:14 PM,71.1,51.6,50,30.04,10.0,NE,10.4,-,N/A,,Scattered Clouds,50,2013-07-01 21:14:00
5:35 PM,71.6,48.4,44,30.04,10.0,NE,16.1,24.2,N/A,,Mostly Cloudy,50,2013-07-01 21:35:00
5:55 PM,71.6,45.7,39,30.03,10.0,ENE,15.0,20.7,N/A,,Mostly Cloudy,60,2013-07-01 21:55:00
6:14 PM,71.6,45.9,40,30.02,10.0,ENE,15.0,21.9,N/A,,Scattered Clouds,60,2013-07-01 22:14:00
6:35 PM,71.1,44.6,39,30.03,10.0,NE,15.0,19.6,N/A,,Clear,50,2013-07-01 22:35:00
6:54 PM,71.1,46.0,41,30.04,10.0,ENE,15.0,20.7,N/A,,Mostly Cloudy,70,2013-07-01 22:54:00
7:14 PM,70.2,47.3,44,30.04,10.0,East,10.4,18.4,N/A,,Overcast,80,2013-07-01 23:14:00
7:35 PM,69.6,46.9,44,30.04,10.0,East,12.7,17.3,N/A,,Mostly Cloudy,80,2013-07-01 23:35:00
7:54 PM,69.3,48.7,48,30.05,10.0,East,8.1,16.1,N/A,,Mostly Cloudy,80,2013-07-01 23:54:00
8:15 PM,69.4,49.3,49,30.04,10.0,ENE,11.5,-,N/A,,Overcast,60,2013-07-02 00:15:00
8:34 PM,68.5,49.3,50,30.06,10.0,East,10.4,17.3,N/A,,Scattered Clouds,80,2013-07-02 00:34:00
8:54 PM,67.6,49.1,51,30.06,10.0,ENE,9.2,-,N/A,,Clear,70,2013-07-02 00:54:00
9:15 PM,66.7,49.8,54,30.06,10.0,East,9.2,16.1,N/A,,Clear,80,2013-07-02 01:15:00
9:34 PM,66.2,49.1,54,30.06,10.0,East,9.2,-,N/A,,Clear,80,2013-07-02 01:34:00
9:55 PM,64.6,49.8,59,30.07,10.0,East,6.9,-,N/A,,Clear,90,2013-07-02 01:55:00
10:15 PM,64.0,50.2,61,30.07,10.0,East,6.9,-,N/A,,Scattered Clouds,90,2013-07-02 02:15:00
10:34 PM,64.4,51.1,62,30.07,10.0,NE,4.6,-,N/A,,Mostly Cloudy,40,2013-07-02 02:34:00
10:55 PM,64.9,51.1,61,30.07,10.0,NE,3.5,-,N/A,,Overcast,50,2013-07-02 02:55:00
11:15 PM,65.3,51.6,61,30.06,10.0,NNE,5.8,-,N/A,,Overcast,20,2013-07-02 03:15:00
11:34 PM,65.3,52.0,62,30.06,10.0,NE,10.4,-,N/A,,Overcast,50,2013-07-02 03:34:00
11:55 PM,64.8,52.0,63,30.06,10.0,NE,10.4,18.4,N/A,,Overcast,50,2013-07-02 03:55:00